TimeCST,TemperatureF,Dew PointF,Humidity,Sea Level PressureIn,VisibilityMPH,Wind Direction,Wind SpeedMPH,Gust SpeedMPH,PrecipitationIn,Events,Conditions,WindDirDegrees,DateUTC
12:53 AM,37.9,36.0,93,30.12,10.0,Calm,Calm,-,N/A,,Clear,0,2012-11-20 06:53:00
1:53 AM,34.0,32.0,92,30.13,8.0,Calm,Calm,-,N/A,,Clear,0,2012-11-20 07:53:00
2:53 AM,37.0,36.0,96,30.14,9.0,Calm,Calm,-,N/A,,Clear,0,2012-11-20 08:53:00
3:35 AM,35.6,35.6,100,30.13,1.5,South,4.6,-,N/A,,Clear,190,2012-11-20 09:35:00
3:37 AM,35.6,35.6,100,30.14,0.5,South,3.5,-,N/A,Fog,Fog,190,2012-11-20 09:37:00
3:53 AM,37.0,34.0,89,30.14,0.5,South,3.5,-,N/A,Fog,Fog,180,2012-11-20 09:53:00
4:20 AM,35.6,33.8,93,30.14,1.2,Calm,Calm,-,N/A,,Partly Cloudy,0,2012-11-20 10:20:00
4:23 AM,35.6,33.8,93,30.14,3.0,Calm,Calm,-,N/A,,Partly Cloudy,0,2012-11-20 10:23:00
4:33 AM,35.6,33.8,93,30.14,1.8,Calm,Calm,-,N/A,,Scattered Clouds,0,2012-11-20 10:33:00
4:36 AM,35.6,33.8,93,30.14,0.8,Calm,Calm,-,N/A,,Mist,0,2012-11-20 10:36:00
4:41 AM,35.6,35.6,100,30.14,0.5,Calm,Calm,-,N/A,Fog,Fog,0,2012-11-20 10:41:00
4:48 AM,35.6,33.8,93,30.15,0.2,Calm,Calm,-,N/A,Fog,Fog,0,2012-11-20 10:48:00
4:53 AM,37.0,35.1,93,30.16,0.2,Calm,Calm,-,N/A,Fog,Fog,0,2012-11-20 10:53:00
5:06 AM,33.8,33.8,100,30.15,0.2,Calm,Calm,-,N/A,Fog,Fog,0,2012-11-20 11:06:00
5:13 AM,35.6,33.8,93,30.16,0.2,Calm,Calm,-,N/A,Fog,Fog,0,2012-11-20 11:13:00
5:18 AM,33.8,33.8,100,30.16,1.0,SE,3.5,-,N/A,,Mist,130,2012-11-20 11:18:00
5:20 AM,33.8,33.8,100,30.16,3.0,SE,3.5,-,N/A,,Scattered Clouds,140,2012-11-20 11:20:00
5:53 AM,34.0,32.0,92,30.18,4.0,Calm,Calm,-,N/A,,Clear,0,2012-11-20 11:53:00
6:05 AM,30.2,30.2,100,30.17,1.8,Calm,Calm,-,N/A,,Clear,0,2012-11-20 12:05:00
6:11 AM,32.0,30.2,93,30.17,0.5,Calm,Calm,-,N/A,Fog,Fog,0,2012-11-20 12:11:00
6:26 AM,33.8,30.2,87,30.17,1.0,Calm,Calm,-,N/A,,Clear,0,2012-11-20 12:26:00
6:35 AM,32.0,30.2,93,30.18,0.5,Calm,Calm,-,N/A,Fog,Fog,0,2012-11-20 12:35:00
6:53 AM,33.1,30.9,92,30.20,0.5,Calm,Calm,-,N/A,Fog,Fog,0,2012-11-20 12:53:00
6:56 AM,33.8,32.0,93,30.19,8.0,Calm,Calm,-,N/A,,Clear,0,2012-11-20 12:56:00
7:53 AM,35.1,33.1,92,30.22,8.0,Calm,Calm,-,N/A,,Clear,0,2012-11-20 13:53:00
8:53 AM,42.1,37.0,82,30.22,8.0,Calm,Calm,-,N/A,,Clear,0,2012-11-20 14:53:00
9:53 AM,48.9,39.0,69,30.23,9.0,North,4.6,-,N/A,,Clear,350,2012-11-20 15:53:00
10:53 AM,53.1,39.0,59,30.23,10.0,NNW,4.6,-,N/A,,Clear,340,2012-11-20 16:53:00
11:53 AM,57.0,39.9,53,30.22,10.0,North,6.9,-,N/A,,Clear,350,2012-11-20 17:53:00
1:53 PM,61.0,39.9,46,30.18,8.0,Calm,Calm,-,N/A,,Clear,0,2012-11-20 19:53:00
2:53 PM,63.0,39.9,43,30.17,9.0,Calm,Calm,-,N/A,,Clear,0,2012-11-20 20:53:00
3:53 PM,63.0,39.9,43,30.17,5.0,Calm,Calm,-,N/A,,Haze,0,2012-11-20 21:53:00
4:15 PM,62.6,39.2,42,30.17,2.5,Calm,Calm,-,N/A,,Haze,0,2012-11-20 22:15:00
4:22 PM,62.6,39.2,42,30.17,9.0,Calm,Calm,-,N/A,,Clear,0,2012-11-20 22:22:00
4:53 PM,60.1,39.0,46,30.17,10.0,Calm,Calm,-,N/A,,Clear,0,2012-11-20 22:53:00
5:53 PM,46.0,37.0,71,30.19,10.0,Calm,Calm,-,N/A,,Clear,0,2012-11-20 23:53:00
6:53 PM,44.1,39.0,82,30.20,9.0,Calm,Calm,-,N/A,,Clear,0,2012-11-21 00:53:00
7:53 PM,39.0,33.1,79,30.22,7.0,Calm,Calm,-,N/A,,Clear,0,2012-11-21 01:53:00
8:53 PM,39.9,35.1,83,30.21,7.0,Calm,Calm,-,N/A,,Clear,0,2012-11-21 02:53:00
9:53 PM,37.9,35.1,89,30.21,8.0,Calm,Calm,-,N/A,,Clear,0,2012-11-21 03:53:00
10:53 PM,37.0,33.1,86,30.21,7.0,Calm,Calm,-,N/A,,Clear,0,2012-11-21 04:53:00
11:53 PM,36.0,34.0,93,30.21,4.0,SSW,3.5,-,N/A,,Clear,200,2012-11-21 05:53:00